Regional Weather Roundup
Issued by NWS Huntsville, AL

Home | Current Version | Previous Version | Text Only | Print | Product List | Glossary On
Versions: 1 2 3 4 5 6 7 8 9 10 11 12 13 14 15 16 17 18 19 20 21 22 23 24 25 26 27 28 29 30 31 32 33 34 35 36 37 38 39 40 41 42 43 44 45 46 47 48 49 50
000
ASUS44 KHUN 090410
RWRHUN

WEATHER ROUNDUP FOR THE TENNESSEE VALLEY
NATIONAL WEATHER SERVICE HUNTSVILLE AL
1000 PM CST THU DEC 08 2016

ALZ001>004-090500-
NORTHWEST ALABAMA

CITY           SKY/WX    TMP DP  RH WIND       PRES   REMARKS
COURTLAND HCN    N/A     32 N/A N/A N8          N/A  WCI  25
RUSSELLVILLE     N/A     28 N/A N/A MISG        N/A
SHOALS AIRPORT CLEAR     31  16  54 N6        30.53R WCI  25
SHOALS TVA RES   N/A     30 N/A N/A MISG        N/A
$$

ALZ005>007-016-090500-
NORTH CENTRAL ALABAMA

CITY           SKY/WX    TMP DP  RH WIND       PRES   REMARKS
CULLMAN AG STN   N/A     34 N/A N/A N5          N/A  WCI  30
DECATUR AP     PTCLDY    31  18  58 N13       30.50R WCI  21
HUNTSVILLE AP  PTCLDY    34  18  52 N10       30.48R WCI  26
MERIDIANVILLE  PTCLDY    32  18  55 N10       30.47S WCI  24
REDSTONE ARSN  PTCLDY    31  16  53 N9        30.47R WCI  23
VINEMONT AP    FAIR      31  15  52 N8        30.46S WCI  24
$$

ALZ008>010-090500-
NORTHEAST ALABAMA

CITY           SKY/WX    TMP DP  RH WIND       PRES   REMARKS
ALBERTVILLE    CLEAR     32  23  69 N13G21    30.42R WCI  22
FORT PAYNE     CLEAR     32  14  47 N5        30.43R WCI  27
SCOTTSBORO AP  CLEAR     32  16  51 N8        30.46S WCI  25
SCOTTSBORO HCN   N/A     34 N/A N/A MISG        N/A
VALLEY HEAD      N/A     27 N/A N/A MISG        N/A
$$

TNZ076-096-097-090500-
SOUTHEASTERN MIDDLE TENNESSEE

CITY           SKY/WX    TMP DP  RH WIND       PRES   REMARKS
TULLAHOMA      CLEAR     25  12  58 N8        30.46R WCI  16
WINCHESTER     CLEAR     27  16  63 N6        30.46S WCI  20
$$

...SURROUNDING SITES...

CITY           SKY/WX    TMP DP  RH WIND       PRES   REMARKS
ATLANTA        MOCLDY    37  20  50 NW8       30.36R WCI  31
ANNISTON       CLOUDY    39  20  46 VRB6      30.43R WCI  35
BIRMINGHAM     PTCLDY    36  22  56 N9        30.47S WCI  29
CHATTANOOGA    PTCLDY    34  16  47 N12       30.44R WCI  25
CORINTH        FAIR      28  16  59 CALM      30.54S
DALTON         CLEAR     32  21  64 NW10      30.42R WCI  24
GADSDEN        CLEAR     35  20  54 N6        30.45R WCI  30
GOLDEN TRNGL   PTCLDY    34  16  47 N10       30.49R WCI  26
HALEYVILLE     FAIR      29  18  63 N10       30.50R WCI  20
JACKSON TN     CLEAR     23  19  85 CALM      30.55S
MEMPHIS        PTCLDY    30  17  58 NW5       30.56S WCI  25
NASHVILLE      CLEAR     28  15  58 N6        30.52R WCI  22
OXFORD MS      FAIR      27  18  69 CALM      30.58R
ROME           CLEAR     36  14  40 NW10      30.41R WCI  28
SAVANNAH       CLEAR     28  18  64 N6        30.53S WCI  22
TUPELO         PTCLDY    31  17  56 NW9       30.55R WCI  23
TUSCALOOSA     PTCLDY    37  21  52 NW8       30.50R WCI  31
$$

...GULF COAST WEATHER...

CITY           SKY/WX    TMP DP  RH WIND       PRES   REMARKS
GULFPORT       PTCLDY    46  25  43 N8        30.44R
PASCAGOULA     CLOUDY    45  26  47 NE9       30.43F
MOBILE         CLOUDY    44  26  49 N12       30.43F
GULF SHORES    MOCLDY    46  30  54 N9        30.42R
PENSACOLA      CLOUDY    47  27  45 N13G24    30.40R
DESTIN         CLOUDY    51  29  42 N13G22    30.39R
PANAMA CITY    CLOUDY    51  28  40 N13       30.35R
APPALACHICOLA  CLOUDY    55  36  48 N14       30.33R
$$




USA.gov is the U.S. government's official web portal to all federal, state and local government web resources and services.